Location: *
(31.2983°S, 151.4094°E)
Time: 08:53:42
(UTC+00:00)

X-37B - Visible Passes

Search period start: 18 September 2020 00:00
Search period end: 28 September 2020 00:00
Orbit: 386 x 387 km, 45.0° (Epoch: 15 September)

Date Brightness Start Highest point End Pass type
(mag) Time Alt. Az. Time Alt. Az. Time Alt. Az.
18 Sep 1.7 08:55:03 10° SW 08:57:58 30° SSE 08:58:30 29° SE visible
19 Sep 2.0 09:32:53 10° WSW 09:35:11 40° W 09:35:11 40° W visible
20 Sep 0.7 08:34:18 10° SW 08:37:30 62° SE 08:39:41 18° ENE visible
21 Sep 2.6 09:12:43 10° W 09:15:24 24° NW 09:16:37 19° N visible
22 Sep 1.2 08:13:46 10° WSW 08:16:57 56° NW 08:20:05 10° NE visible
23 Sep 3.6 08:53:37 10° WNW 08:54:40 11° NW 08:55:43 10° NNW visible
